Tracking 30692 objects as of 16-Jun-2025
HD Live streaming from Space Station
objects crossing your sky now

STARLINK-5908

Track STARLINK-5908 now!
10-day predictions
STARLINK-5908 is classified as:


NORAD ID: 55951
Int'l Code: 2023-037AP
Perigee: 573.0 km
Apogee: 581.6 km
Inclination: 70.0 °
Period: 96.1 minutes
Semi major axis: 6948 km
RCS: Unknown
Launch date: March 17, 2023
Source: United States (US)
Launch site: AIR FORCE WESTERN TEST RANGE (AFWTR)
Your satellite tracking list
Your tracking list is empty




NASA's NSSDC Master Catalog

Two Line Element Set (TLE):
1 55951U 23037AP  25166.37509136  .00087029  00000-0  70938-2 0  9999
2 55951  69.9987 238.2615 0006184 260.4106  99.6355 14.98956056123949
Source of the keplerian elements: AFSPC